Year,Month,Day,Hour,Minute,Value (Times are PST for temperature in C)
2016,09,25,00,00,13.30
2016,09,25,00,01,13.30
2016,09,25,00,02,13.40
2016,09,25,00,03,13.40
2016,09,25,00,04,13.40
2016,09,25,00,05,13.40
2016,09,25,00,06,13.40
2016,09,25,00,07,13.40
2016,09,25,00,08,13.40
2016,09,25,00,09,13.40
2016,09,25,00,10,13.40
2016,09,25,00,11,13.40
2016,09,25,00,12,13.40
2016,09,25,00,13,13.40
2016,09,25,00,14,13.40
2016,09,25,00,15,13.40
2016,09,25,00,16,13.40
2016,09,25,00,17,13.40
2016,09,25,00,18,13.40
2016,09,25,00,19,13.40
2016,09,25,00,20,13.40
2016,09,25,00,21,13.40
2016,09,25,00,22,13.40
2016,09,25,00,23,13.50
2016,09,25,00,24,13.50
2016,09,25,00,25,13.50
2016,09,25,00,26,13.50
2016,09,25,00,27,13.50
2016,09,25,00,28,13.50
2016,09,25,00,29,13.50
2016,09,25,00,30,13.50
2016,09,25,00,31,13.50
2016,09,25,00,32,13.50
2016,09,25,00,33,13.50
2016,09,25,00,34,13.50
2016,09,25,00,35,13.50
2016,09,25,00,36,13.50
2016,09,25,00,37,13.50
2016,09,25,00,38,13.50
2016,09,25,00,39,13.50
2016,09,25,00,40,13.50
2016,09,25,00,41,13.50
2016,09,25,00,42,13.50
2016,09,25,00,43,13.50
2016,09,25,00,44,13.50
2016,09,25,00,45,13.50
2016,09,25,00,46,13.50
2016,09,25,00,47,13.50
2016,09,25,00,48,13.50
2016,09,25,00,49,13.50
2016,09,25,00,50,13.50
2016,09,25,00,51,13.50
2016,09,25,00,52,13.60
2016,09,25,00,53,13.60
2016,09,25,00,54,13.60
2016,09,25,00,55,13.60
2016,09,25,00,56,13.60
2016,09,25,00,57,13.60
2016,09,25,00,58,13.60
2016,09,25,00,59,13.60
2016,09,25,01,00,13.60
2016,09,25,01,01,13.60
2016,09,25,01,02,13.60
2016,09,25,01,03,13.60
2016,09,25,01,04,13.60
2016,09,25,01,05,13.60
2016,09,25,01,06,13.60
2016,09,25,01,07,13.60
2016,09,25,01,08,13.60
2016,09,25,01,09,13.60
2016,09,25,01,10,13.60
2016,09,25,01,11,13.60
2016,09,25,01,12,13.60
2016,09,25,01,13,13.60
2016,09,25,01,14,13.60
2016,09,25,01,15,13.60
2016,09,25,01,16,13.60
2016,09,25,01,17,13.60
2016,09,25,01,18,13.60
2016,09,25,01,19,13.60
2016,09,25,01,20,13.60
2016,09,25,01,21,13.60
2016,09,25,01,22,13.60
2016,09,25,01,23,13.60
2016,09,25,01,24,13.70
2016,09,25,01,25,13.60
2016,09,25,01,26,13.70
2016,09,25,01,27,13.70
2016,09,25,01,28,13.70
2016,09,25,01,29,13.70
2016,09,25,01,30,13.70
2016,09,25,01,31,13.70
2016,09,25,01,32,13.70
2016,09,25,01,33,13.70
2016,09,25,01,34,13.70
2016,09,25,01,35,13.60
2016,09,25,01,36,13.60
2016,09,25,01,37,13.60
2016,09,25,01,38,13.70
2016,09,25,01,39,13.70
2016,09,25,01,40,13.70
2016,09,25,01,41,13.60
2016,09,25,01,42,13.60
2016,09,25,01,43,13.70
2016,09,25,01,44,13.70
2016,09,25,01,45,13.70
2016,09,25,01,46,13.70
2016,09,25,01,47,13.70
2016,09,25,01,48,13.70
2016,09,25,01,49,13.70
2016,09,25,01,50,13.70
2016,09,25,01,51,13.70
2016,09,25,01,52,13.70
2016,09,25,01,53,13.70
2016,09,25,01,54,13.70
2016,09,25,01,55,13.70
2016,09,25,01,56,13.70
2016,09,25,01,57,13.70
2016,09,25,01,58,13.70
2016,09,25,01,59,13.60
2016,09,25,02,00,13.60
2016,09,25,02,01,13.60
2016,09,25,02,02,13.60
2016,09,25,02,03,13.60
2016,09,25,02,04,13.60
2016,09,25,02,05,13.60
2016,09,25,02,06,13.60
2016,09,25,02,07,13.60
2016,09,25,02,08,13.60
2016,09,25,02,09,13.60
2016,09,25,02,10,13.60
2016,09,25,02,11,13.60
2016,09,25,02,12,13.60
2016,09,25,02,13,13.60
2016,09,25,02,14,13.60
2016,09,25,02,15,13.60
2016,09,25,02,16,13.60
2016,09,25,02,17,13.60
2016,09,25,02,18,13.60
2016,09,25,02,19,13.60
2016,09,25,02,20,13.60
2016,09,25,02,21,13.60
2016,09,25,02,22,13.50
2016,09,25,02,23,13.50
2016,09,25,02,24,13.50
2016,09,25,02,25,13.50
2016,09,25,02,26,13.50
2016,09,25,02,27,13.50
2016,09,25,02,28,13.50
2016,09,25,02,29,13.50
2016,09,25,02,30,13.50
2016,09,25,02,31,13.50
2016,09,25,02,32,13.40
2016,09,25,02,33,13.40
2016,09,25,02,34,13.40
2016,09,25,02,35,13.40
2016,09,25,02,36,13.40
2016,09,25,02,37,13.40
2016,09,25,02,38,13.40
2016,09,25,02,39,13.40
2016,09,25,02,40,13.40
2016,09,25,02,41,13.40
2016,09,25,02,42,13.40
2016,09,25,02,43,13.40
2016,09,25,02,44,13.40
2016,09,25,02,45,13.40
2016,09,25,02,46,13.40
2016,09,25,02,47,13.40
2016,09,25,02,48,13.40
2016,09,25,02,49,13.40
2016,09,25,02,50,13.40
2016,09,25,02,51,13.40
2016,09,25,02,52,13.40
2016,09,25,02,53,13.30
2016,09,25,02,54,13.30
2016,09,25,02,55,13.30
2016,09,25,02,56,13.30
2016,09,25,02,57,13.30
2016,09,25,02,58,13.30
2016,09,25,02,59,13.30
2016,09,25,03,00,13.30
2016,09,25,03,01,13.30
2016,09,25,03,02,13.30
2016,09,25,03,03,13.30
2016,09,25,03,04,13.20
2016,09,25,03,05,13.20
2016,09,25,03,06,13.20
2016,09,25,03,07,13.20
2016,09,25,03,08,13.20
2016,09,25,03,09,13.20
2016,09,25,03,10,13.20
2016,09,25,03,11,13.20
2016,09,25,03,12,13.20
2016,09,25,03,13,13.20
2016,09,25,03,14,13.20
2016,09,25,03,15,13.20
2016,09,25,03,16,13.20
2016,09,25,03,17,13.20
2016,09,25,03,18,13.20
2016,09,25,03,19,13.20
2016,09,25,03,20,13.20
2016,09,25,03,21,13.20
2016,09,25,03,22,13.20
2016,09,25,03,23,13.20
2016,09,25,03,24,13.20
2016,09,25,03,25,13.20
2016,09,25,03,26,13.20
2016,09,25,03,27,13.20
2016,09,25,03,28,13.20
2016,09,25,03,29,13.20
2016,09,25,03,30,13.20
2016,09,25,03,31,13.20
2016,09,25,03,32,13.20
2016,09,25,03,33,13.20
2016,09,25,03,34,13.20
2016,09,25,03,35,13.20
2016,09,25,03,36,13.20
2016,09,25,03,37,13.20
2016,09,25,03,38,13.20
2016,09,25,03,39,13.20
2016,09,25,03,40,13.20
2016,09,25,03,41,13.20
2016,09,25,03,42,13.20
2016,09,25,03,43,13.20
2016,09,25,03,44,13.20
2016,09,25,03,45,13.20
2016,09,25,03,46,13.20
2016,09,25,03,47,13.20
2016,09,25,03,48,13.20
2016,09,25,03,49,13.20
2016,09,25,03,50,13.20
2016,09,25,03,51,13.30
2016,09,25,03,52,13.30
2016,09,25,03,53,13.30
2016,09,25,03,54,13.30
2016,09,25,03,55,13.30
2016,09,25,03,56,13.30
2016,09,25,03,57,13.30
2016,09,25,03,58,13.20
2016,09,25,03,59,13.20
2016,09,25,04,00,13.30
2016,09,25,04,01,13.20
2016,09,25,04,02,13.30
2016,09,25,04,03,13.30
2016,09,25,05,04,13.30
2016,09,25,05,05,13.30
2016,09,25,05,06,13.30
2016,09,25,05,07,13.30
2016,09,25,05,08,13.30
2016,09,25,05,09,13.30
2016,09,25,05,10,13.30
2016,09,25,05,11,13.30
2016,09,25,05,12,13.30
2016,09,25,05,13,13.30
2016,09,25,05,14,13.30
2016,09,25,05,15,13.30
2016,09,25,05,16,13.30
2016,09,25,05,17,13.30
2016,09,25,05,18,13.30
2016,09,25,05,19,13.30
2016,09,25,05,20,13.30
2016,09,25,05,21,13.30
2016,09,25,05,22,13.20
2016,09,25,05,23,13.20
2016,09,25,05,24,13.20
2016,09,25,05,25,13.20
2016,09,25,05,26,13.20
2016,09,25,05,27,13.20
2016,09,25,05,28,13.20
2016,09,25,05,29,13.20
2016,09,25,05,30,13.20
2016,09,25,05,31,13.20
2016,09,25,05,32,13.20
2016,09,25,05,33,13.20
2016,09,25,05,34,13.20
2016,09,25,05,35,13.20
2016,09,25,05,36,13.10
2016,09,25,05,37,13.10
2016,09,25,05,38,13.10
2016,09,25,05,39,13.10
2016,09,25,05,40,13.10
2016,09,25,05,41,13.10
2016,09,25,05,42,13.10
2016,09,25,05,43,13.10
2016,09,25,05,44,13.10
2016,09,25,05,45,13.10
2016,09,25,05,46,13.10
2016,09,25,05,47,13.10
2016,09,25,05,48,13.10
2016,09,25,05,49,13.10
2016,09,25,05,50,13.10
2016,09,25,05,51,13.10
2016,09,25,05,52,13.10
2016,09,25,05,53,13.10
2016,09,25,05,54,13.10
2016,09,25,05,55,13.10
2016,09,25,05,56,13.10
2016,09,25,05,57,13.10
2016,09,25,05,58,13.10
2016,09,25,05,59,13.10
2016,09,25,06,00,13.10
2016,09,25,06,01,13.10
2016,09,25,06,02,13.10
2016,09,25,06,03,13.10
2016,09,25,06,04,13.10
2016,09,25,06,05,13.10
2016,09,25,06,06,13.10
2016,09,25,06,07,13.10
2016,09,25,06,08,13.10
2016,09,25,06,09,13.10
2016,09,25,06,10,13.10
2016,09,25,06,11,13.10
2016,09,25,06,12,13.10
2016,09,25,06,13,13.10
2016,09,25,06,14,13.10
2016,09,25,06,15,13.10
2016,09,25,06,16,13.10
2016,09,25,06,17,13.10
2016,09,25,06,18,13.10
2016,09,25,06,19,13.10
2016,09,25,06,20,13.10
2016,09,25,06,21,13.10
2016,09,25,06,22,13.10
2016,09,25,06,23,13.10
2016,09,25,06,24,13.10
2016,09,25,06,25,13.10
2016,09,25,06,26,13.10
2016,09,25,06,27,13.10
2016,09,25,06,28,13.10
2016,09,25,06,29,13.10
2016,09,25,06,30,13.10
2016,09,25,06,31,13.10
2016,09,25,06,32,13.10
2016,09,25,06,33,13.10
2016,09,25,06,34,13.10
2016,09,25,06,35,13.10
2016,09,25,06,36,13.00
2016,09,25,06,37,13.10
2016,09,25,06,38,13.00
2016,09,25,06,39,13.00
2016,09,25,06,40,13.00
2016,09,25,06,41,13.00
2016,09,25,06,42,13.00
2016,09,25,06,43,13.00
2016,09,25,06,44,13.00
2016,09,25,06,45,13.00
2016,09,25,06,46,13.00
2016,09,25,06,47,13.00
2016,09,25,06,48,13.00
2016,09,25,06,49,13.00
2016,09,25,06,50,13.00
2016,09,25,06,51,13.00
2016,09,25,06,52,13.00
2016,09,25,06,53,13.00
2016,09,25,06,54,13.00
2016,09,25,06,55,13.00
2016,09,25,06,56,13.00
2016,09,25,06,57,13.00
2016,09,25,06,58,13.00
2016,09,25,06,59,13.00
2016,09,25,07,00,13.00
2016,09,25,07,01,13.00
2016,09,25,07,02,13.00
2016,09,25,07,03,13.00
2016,09,25,07,04,13.00
2016,09,25,07,05,13.00
2016,09,25,07,06,13.00
2016,09,25,07,07,13.00
2016,09,25,07,08,13.00
2016,09,25,07,09,13.00
2016,09,25,07,10,13.00
2016,09,25,07,11,13.00
2016,09,25,07,12,13.00
2016,09,25,07,13,13.00
2016,09,25,07,14,13.00
2016,09,25,07,15,13.00
2016,09,25,07,16,13.00
2016,09,25,07,17,13.00
2016,09,25,07,18,13.00
2016,09,25,07,19,13.00
2016,09,25,07,20,13.00
2016,09,25,07,21,13.00
2016,09,25,07,22,13.00
2016,09,25,07,23,13.00
2016,09,25,07,24,13.00
2016,09,25,07,25,13.00
2016,09,25,07,26,13.00
2016,09,25,07,27,13.00
2016,09,25,07,28,13.00
2016,09,25,07,29,13.00
2016,09,25,07,30,13.00
2016,09,25,07,31,13.00
2016,09,25,07,32,13.00
2016,09,25,07,33,13.00
2016,09,25,07,34,13.00
2016,09,25,07,35,13.00
2016,09,25,07,36,13.10
2016,09,25,07,37,13.00
2016,09,25,07,38,13.00
2016,09,25,07,39,13.00
2016,09,25,07,40,13.10
2016,09,25,07,41,13.10
2016,09,25,07,42,13.10
2016,09,25,07,43,13.10
2016,09,25,07,44,13.10
2016,09,25,07,45,13.10
2016,09,25,07,46,13.10
2016,09,25,07,47,13.10
2016,09,25,07,48,13.10
2016,09,25,07,49,13.10
2016,09,25,07,50,13.10
2016,09,25,07,51,13.10
2016,09,25,07,52,13.10
2016,09,25,07,53,13.10
2016,09,25,07,54,13.10
2016,09,25,07,55,13.10
2016,09,25,07,56,13.10
2016,09,25,07,57,13.10
2016,09,25,07,58,13.10
2016,09,25,07,59,13.10
2016,09,25,08,00,13.10
2016,09,25,08,01,13.10
2016,09,25,08,02,13.10
2016,09,25,08,03,13.10
2016,09,25,08,04,13.10
2016,09,25,08,05,13.10
2016,09,25,08,06,13.10
2016,09,25,08,07,13.10
2016,09,25,08,08,13.10
2016,09,25,08,09,13.10
2016,09,25,08,10,13.10
2016,09,25,08,11,13.10
2016,09,25,08,12,13.10
2016,09,25,08,13,13.10
2016,09,25,08,14,13.10
2016,09,25,08,15,13.10
2016,09,25,08,16,13.10
2016,09,25,08,17,13.10
2016,09,25,08,18,13.10
2016,09,25,08,19,13.10
2016,09,25,08,20,13.10
2016,09,25,08,21,13.20
2016,09,25,08,22,13.20
2016,09,25,08,23,13.20
2016,09,25,08,24,13.20
2016,09,25,08,25,13.20
2016,09,25,08,26,13.20
2016,09,25,08,27,13.20
2016,09,25,08,28,13.20
2016,09,25,08,29,13.20
2016,09,25,08,30,13.20
2016,09,25,08,31,13.20
2016,09,25,08,32,13.20
2016,09,25,08,33,13.20
2016,09,25,08,34,13.30
2016,09,25,08,35,13.30
2016,09,25,08,36,13.30
2016,09,25,08,37,13.30
2016,09,25,08,38,13.30
2016,09,25,08,39,13.30
2016,09,25,08,40,13.30
2016,09,25,08,41,13.30
2016,09,25,08,42,13.30
2016,09,25,08,43,13.30
2016,09,25,08,44,13.30
2016,09,25,08,45,13.30
2016,09,25,08,46,13.40
2016,09,25,08,47,13.40
2016,09,25,08,48,13.40
2016,09,25,08,49,13.40
2016,09,25,08,50,13.40
2016,09,25,08,51,13.40
2016,09,25,08,52,13.40
2016,09,25,08,53,13.40
2016,09,25,08,54,13.50
2016,09,25,08,55,13.50
2016,09,25,08,56,13.50
2016,09,25,08,57,13.50
2016,09,25,08,58,13.50
2016,09,25,08,59,13.40
2016,09,25,09,00,13.40
2016,09,25,09,01,13.40
2016,09,25,09,02,13.40
2016,09,25,09,03,13.50
2016,09,25,09,04,13.50
2016,09,25,09,05,13.50
2016,09,25,09,06,13.50
2016,09,25,09,07,13.50
2016,09,25,09,08,13.50
2016,09,25,09,09,13.60
2016,09,25,09,10,13.60
2016,09,25,09,11,13.60
2016,09,25,09,12,13.60
2016,09,25,09,13,13.60
2016,09,25,09,14,13.60
2016,09,25,09,15,13.60
2016,09,25,09,16,13.60
2016,09,25,09,17,13.70
2016,09,25,09,18,13.70
2016,09,25,09,19,13.70
2016,09,25,09,20,13.70
2016,09,25,09,21,13.70
2016,09,25,09,22,13.70
2016,09,25,09,23,13.70
2016,09,25,09,24,13.80
2016,09,25,09,25,13.80
2016,09,25,09,26,13.70
2016,09,25,09,27,13.70
2016,09,25,09,28,13.80
2016,09,25,09,29,13.80
2016,09,25,09,30,13.80
2016,09,25,09,31,13.80
2016,09,25,09,32,13.80
2016,09,25,09,33,13.80
2016,09,25,09,34,13.80
2016,09,25,09,35,13.80
2016,09,25,09,36,13.80
2016,09,25,09,37,13.80
2016,09,25,09,38,13.80
2016,09,25,09,39,13.80
2016,09,25,09,40,13.80
2016,09,25,09,41,13.80
2016,09,25,09,42,13.80
2016,09,25,09,43,13.80
2016,09,25,09,44,13.90
2016,09,25,09,45,13.90
2016,09,25,09,46,13.90
2016,09,25,09,47,13.90
2016,09,25,09,48,13.90
2016,09,25,09,49,13.90
2016,09,25,09,50,13.90
2016,09,25,09,51,13.90
2016,09,25,09,52,13.90
2016,09,25,09,53,13.90
2016,09,25,09,54,13.90
2016,09,25,09,55,13.90
2016,09,25,09,56,13.90
2016,09,25,09,57,13.90
2016,09,25,09,58,13.90
2016,09,25,09,59,13.90
2016,09,25,10,00,13.90
2016,09,25,10,01,13.90
2016,09,25,10,02,14.00
2016,09,25,10,03,14.00
2016,09,25,10,04,14.00
2016,09,25,10,05,14.10
2016,09,25,10,06,14.10
2016,09,25,10,07,14.10
2016,09,25,10,08,14.10
2016,09,25,10,09,14.10
2016,09,25,10,10,14.20
2016,09,25,10,11,14.20
2016,09,25,10,12,14.10
2016,09,25,10,13,14.20
2016,09,25,10,14,14.20
2016,09,25,10,15,14.20
2016,09,25,10,16,14.30
2016,09,25,10,17,14.30
2016,09,25,10,18,14.30
2016,09,25,10,19,14.30
2016,09,25,10,20,14.30
2016,09,25,10,21,14.30
2016,09,25,10,22,14.30
2016,09,25,10,23,14.30
2016,09,25,10,24,14.30
2016,09,25,10,25,14.30
2016,09,25,10,26,14.40
2016,09,25,10,27,14.40
2016,09,25,10,28,14.50
2016,09,25,10,29,14.50
2016,09,25,10,30,14.50
2016,09,25,10,31,14.50
2016,09,25,10,32,14.50
2016,09,25,10,33,14.60
2016,09,25,10,34,14.60
2016,09,25,10,35,14.60
2016,09,25,10,36,14.60
2016,09,25,10,37,14.50
2016,09,25,10,38,14.50
2016,09,25,10,39,14.50
2016,09,25,10,40,14.50
2016,09,25,10,41,14.50
2016,09,25,10,42,14.50
2016,09,25,10,43,14.50
2016,09,25,10,44,14.40
2016,09,25,10,45,14.40
2016,09,25,10,46,14.40
2016,09,25,10,47,14.40
2016,09,25,10,48,14.40
2016,09,25,10,49,14.40
2016,09,25,10,50,14.40
2016,09,25,10,51,14.40
2016,09,25,10,52,14.40
2016,09,25,10,53,14.40
2016,09,25,10,54,14.40
2016,09,25,10,55,14.40
2016,09,25,10,56,14.40
2016,09,25,10,57,14.50
2016,09,25,10,58,14.50
2016,09,25,10,59,14.50
2016,09,25,11,00,14.50
2016,09,25,11,01,14.50
2016,09,25,11,02,14.50
2016,09,25,11,03,14.50
2016,09,25,11,04,14.60
2016,09,25,11,05,14.50
2016,09,25,11,06,14.60
2016,09,25,11,07,14.50
2016,09,25,11,08,14.50
2016,09,25,11,09,14.60
2016,09,25,11,10,14.60
2016,09,25,11,11,14.60
2016,09,25,11,12,14.70
2016,09,25,11,13,14.70
2016,09,25,11,14,14.70
2016,09,25,11,15,14.70
2016,09,25,11,16,14.70
2016,09,25,11,17,14.70
2016,09,25,11,18,14.70
2016,09,25,11,19,14.70
2016,09,25,11,20,14.80
2016,09,25,11,21,14.80
2016,09,25,11,22,14.80
2016,09,25,11,23,14.80
2016,09,25,11,24,14.80
2016,09,25,11,25,14.80
2016,09,25,11,26,14.70
2016,09,25,11,27,14.70
2016,09,25,11,28,14.80
2016,09,25,11,29,14.70
2016,09,25,11,30,14.80
2016,09,25,11,31,14.80
2016,09,25,11,32,14.80
2016,09,25,11,33,14.80
2016,09,25,11,34,14.90
2016,09,25,11,35,14.90
2016,09,25,11,36,14.90
2016,09,25,11,37,15.00
2016,09,25,11,38,15.00
2016,09,25,11,39,15.00
2016,09,25,11,40,15.00
2016,09,25,11,41,15.10
2016,09,25,11,42,15.10
2016,09,25,11,43,15.10
2016,09,25,11,44,15.10
2016,09,25,11,45,15.10
2016,09,25,11,46,15.10
2016,09,25,11,47,15.10
2016,09,25,11,48,15.20
2016,09,25,11,49,15.20
2016,09,25,11,50,15.30
2016,09,25,11,51,15.30
2016,09,25,11,52,15.30
2016,09,25,11,53,15.40
2016,09,25,11,54,15.40
2016,09,25,11,55,15.50
2016,09,25,11,56,15.50
2016,09,25,11,57,15.60
2016,09,25,11,58,15.60
2016,09,25,11,59,15.60
2016,09,25,12,00,15.70
2016,09,25,12,01,15.70
2016,09,25,12,02,15.70
2016,09,25,12,03,15.80
2016,09,25,12,04,15.80
2016,09,25,12,05,15.80
2016,09,25,12,06,15.80
2016,09,25,12,07,15.90
2016,09,25,12,08,15.90
2016,09,25,12,09,16.00
2016,09,25,12,10,16.00
2016,09,25,12,11,16.10
2016,09,25,12,12,16.10
2016,09,25,12,13,16.10
2016,09,25,12,14,16.10
2016,09,25,12,15,16.10
2016,09,25,12,16,16.20
2016,09,25,12,17,16.20
2016,09,25,12,18,16.20
2016,09,25,12,19,16.30
2016,09,25,12,20,16.30
2016,09,25,12,21,16.40
2016,09,25,12,22,16.50
2016,09,25,12,23,16.50
2016,09,25,12,24,16.60
2016,09,25,12,25,16.60
2016,09,25,12,26,16.60
2016,09,25,12,27,16.60
2016,09,25,12,28,16.70
2016,09,25,12,29,16.70
2016,09,25,12,30,16.70
2016,09,25,12,31,16.70
2016,09,25,12,32,16.70
2016,09,25,12,33,16.60
2016,09,25,12,34,16.60
2016,09,25,12,35,16.60
2016,09,25,12,36,16.50
2016,09,25,12,37,16.50
2016,09,25,12,38,16.50
2016,09,25,12,39,16.60
2016,09,25,12,40,16.60
2016,09,25,12,41,16.50
2016,09,25,12,42,16.50
2016,09,25,12,43,16.50
2016,09,25,12,44,16.50
2016,09,25,12,45,16.50
2016,09,25,12,46,16.50
2016,09,25,12,47,16.50
2016,09,25,12,48,16.60
2016,09,25,12,49,16.60
2016,09,25,12,50,16.70
2016,09,25,12,51,16.80
2016,09,25,12,52,16.80
2016,09,25,12,53,16.90
2016,09,25,12,54,17.00
2016,09,25,12,55,17.10
2016,09,25,12,56,17.20
2016,09,25,12,57,17.30
2016,09,25,12,58,17.30
2016,09,25,12,59,17.30
2016,09,25,13,00,17.30
2016,09,25,13,01,17.40
2016,09,25,13,02,17.40
2016,09,25,13,03,17.50
2016,09,25,13,04,17.50
2016,09,25,13,05,17.50
2016,09,25,13,06,17.60
2016,09,25,13,07,17.60
2016,09,25,13,08,17.60
2016,09,25,13,09,17.60
2016,09,25,13,10,17.60
2016,09,25,13,11,17.50
2016,09,25,13,12,17.50
2016,09,25,13,13,17.50
2016,09,25,13,14,17.50
2016,09,25,13,15,17.40
2016,09,25,13,16,17.40
2016,09,25,13,17,17.30
2016,09,25,13,18,17.30
2016,09,25,13,19,17.30
2016,09,25,13,20,17.40
2016,09,25,13,21,17.40
2016,09,25,13,22,17.40
2016,09,25,13,23,17.40
2016,09,25,13,24,17.40
2016,09,25,13,25,17.30
2016,09,25,13,26,17.30
2016,09,25,13,27,17.30
2016,09,25,13,28,17.30
2016,09,25,13,29,17.40
2016,09,25,13,30,17.50
2016,09,25,13,31,17.50
2016,09,25,13,32,17.50
2016,09,25,13,33,17.50
2016,09,25,13,34,17.50
2016,09,25,13,35,17.50
2016,09,25,13,36,17.50
2016,09,25,13,37,17.50
2016,09,25,13,38,17.50
2016,09,25,13,39,17.60
2016,09,25,13,40,17.60
2016,09,25,13,41,17.70
2016,09,25,13,42,17.70
2016,09,25,13,43,17.70
2016,09,25,13,44,17.70
2016,09,25,13,45,17.70
2016,09,25,13,46,17.60
2016,09,25,13,47,17.60
2016,09,25,13,48,17.60
2016,09,25,13,49,17.60
2016,09,25,13,50,17.50
2016,09,25,13,51,17.50
2016,09,25,13,52,17.50
2016,09,25,13,53,17.50
2016,09,25,13,54,17.50
2016,09,25,13,55,17.50
2016,09,25,13,56,17.60
2016,09,25,13,57,17.60
2016,09,25,13,58,17.70
2016,09,25,13,59,17.70
2016,09,25,14,00,17.80
2016,09,25,14,01,17.80
2016,09,25,14,02,17.80
2016,09,25,14,03,17.80
2016,09,25,14,04,17.80
2016,09,25,14,05,17.80
2016,09,25,14,06,17.80
2016,09,25,14,07,17.80
2016,09,25,14,08,17.80
2016,09,25,14,09,17.80
2016,09,25,14,10,17.80
2016,09,25,14,11,17.70
2016,09,25,14,12,17.80
2016,09,25,14,13,17.70
2016,09,25,14,14,17.70
2016,09,25,14,15,17.70
2016,09,25,14,16,17.70
2016,09,25,14,17,17.80
2016,09,25,14,18,17.90
2016,09,25,14,19,17.90
2016,09,25,14,20,18.00
2016,09,25,14,21,18.10
2016,09,25,14,22,18.10
2016,09,25,14,23,18.20
2016,09,25,14,24,18.30
2016,09,25,14,25,18.30
2016,09,25,14,26,18.40
2016,09,25,14,27,18.40
2016,09,25,14,28,18.40
2016,09,25,14,29,18.40
2016,09,25,14,30,18.40
2016,09,25,14,31,18.40
2016,09,25,14,32,18.30
2016,09,25,14,33,18.20
2016,09,25,14,34,18.20
2016,09,25,14,35,18.20
2016,09,25,14,36,18.10
2016,09,25,14,37,18.00
2016,09,25,14,38,18.00
2016,09,25,14,39,18.00
2016,09,25,14,40,18.00
2016,09,25,14,41,18.00
2016,09,25,14,42,18.00
2016,09,25,14,43,18.10
2016,09,25,14,44,18.20
2016,09,25,14,45,18.20
2016,09,25,14,46,18.20
2016,09,25,14,47,18.30
2016,09,25,14,48,18.30
2016,09,25,14,49,18.30
2016,09,25,14,50,18.30
2016,09,25,14,51,18.30
2016,09,25,14,52,18.30
2016,09,25,14,53,18.30
2016,09,25,14,54,18.30
2016,09,25,14,55,18.30
2016,09,25,14,56,18.30
2016,09,25,14,57,18.30
2016,09,25,14,58,18.30
2016,09,25,14,59,18.30
2016,09,25,15,00,18.30
2016,09,25,15,01,18.40
2016,09,25,15,02,18.40
2016,09,25,15,03,18.40
2016,09,25,15,04,18.50
2016,09,25,15,05,18.50
2016,09,25,15,06,18.60
2016,09,25,15,07,18.60
2016,09,25,15,08,18.60
2016,09,25,15,09,18.60
2016,09,25,15,10,18.60
2016,09,25,15,11,18.60
2016,09,25,15,12,18.60
2016,09,25,15,13,18.60
2016,09,25,15,14,18.60
2016,09,25,15,15,18.60
2016,09,25,15,16,18.70
2016,09,25,15,17,18.70
2016,09,25,15,18,18.70
2016,09,25,15,19,18.70
2016,09,25,15,20,18.70
2016,09,25,15,21,18.80
2016,09,25,15,22,18.80
2016,09,25,15,23,18.80
2016,09,25,15,24,18.80
2016,09,25,15,25,18.90
2016,09,25,15,26,18.90
2016,09,25,15,27,19.00
2016,09,25,15,28,19.10
2016,09,25,15,29,19.10
2016,09,25,15,30,19.00
2016,09,25,15,31,19.00
2016,09,25,15,32,19.00
2016,09,25,15,33,19.00
2016,09,25,15,34,19.00
2016,09,25,15,35,19.00
2016,09,25,15,36,19.00
2016,09,25,15,37,19.00
2016,09,25,15,38,18.90
2016,09,25,15,39,18.90
2016,09,25,15,40,18.90
2016,09,25,15,41,18.90
2016,09,25,15,42,18.90
2016,09,25,15,43,18.90
2016,09,25,15,44,19.00
2016,09,25,15,45,19.10
2016,09,25,15,46,19.10
2016,09,25,15,47,19.20
2016,09,25,15,48,19.20
2016,09,25,15,49,19.20
2016,09,25,15,50,19.10
2016,09,25,15,51,19.20
2016,09,25,15,52,19.20
2016,09,25,15,53,19.20
2016,09,25,15,54,19.20
2016,09,25,15,55,19.20
2016,09,25,15,56,19.20
2016,09,25,15,57,19.20
2016,09,25,15,58,19.20
2016,09,25,15,59,19.10
2016,09,25,16,00,19.10
2016,09,25,16,01,19.20
2016,09,25,16,02,19.20
2016,09,25,16,03,19.20
2016,09,25,16,04,19.20
2016,09,25,16,05,19.20
2016,09,25,16,06,19.20
2016,09,25,16,07,19.10
2016,09,25,16,08,19.10
2016,09,25,16,09,19.10
2016,09,25,17,04,18.70
2016,09,25,17,05,18.70
2016,09,25,17,06,18.70
2016,09,25,17,07,18.80
2016,09,25,17,08,18.80
2016,09,25,17,09,18.80
2016,09,25,17,10,18.80
2016,09,25,17,11,18.90
2016,09,25,17,12,18.90
2016,09,25,17,13,18.90
2016,09,25,17,14,18.90
2016,09,25,17,15,18.90
2016,09,25,17,16,18.90
2016,09,25,17,17,18.90
2016,09,25,17,18,18.90
2016,09,25,17,19,18.90
2016,09,25,17,20,18.90
2016,09,25,17,21,19.00
2016,09,25,17,22,19.00
2016,09,25,17,23,19.10
2016,09,25,17,24,19.10
2016,09,25,17,25,19.10
2016,09,25,17,26,19.10
2016,09,25,17,27,19.10
2016,09,25,17,28,19.10
2016,09,25,17,29,19.00
2016,09,25,17,30,19.00
2016,09,25,17,31,19.00
2016,09,25,17,32,18.90
2016,09,25,17,33,18.90
2016,09,25,17,34,18.80
2016,09,25,17,35,18.80
2016,09,25,17,36,18.70
2016,09,25,17,37,18.70
2016,09,25,17,38,18.70
2016,09,25,17,39,18.70
2016,09,25,17,40,18.70
2016,09,25,17,41,18.70
2016,09,25,17,42,18.70
2016,09,25,17,43,18.60
2016,09,25,17,44,18.60
2016,09,25,17,45,18.50
2016,09,25,17,46,18.50
2016,09,25,17,47,18.50
2016,09,25,17,48,18.40
2016,09,25,17,49,18.40
2016,09,25,17,50,18.40
2016,09,25,17,51,18.40
2016,09,25,17,52,18.40
2016,09,25,17,53,18.40
2016,09,25,17,54,18.40
2016,09,25,17,55,18.30
2016,09,25,17,56,18.30
2016,09,25,17,57,18.30
2016,09,25,17,58,18.20
2016,09,25,17,59,18.20
2016,09,25,18,00,18.10
2016,09,25,18,01,18.10
2016,09,25,18,02,18.10
2016,09,25,18,03,18.10
2016,09,25,18,04,18.00
2016,09,25,18,05,18.00
2016,09,25,18,06,18.00
2016,09,25,18,07,17.90
2016,09,25,18,08,17.90
2016,09,25,18,09,17.90
2016,09,25,18,10,17.90
2016,09,25,18,11,17.90
2016,09,25,18,12,17.80
2016,09,25,18,13,17.80
2016,09,25,18,14,17.80
2016,09,25,18,15,17.80
2016,09,25,18,16,17.80
2016,09,25,18,17,17.70
2016,09,25,18,18,17.70
2016,09,25,18,19,17.70
2016,09,25,18,20,17.70
2016,09,25,18,21,17.70
2016,09,25,18,22,17.60
2016,09,25,18,23,17.60
2016,09,25,18,24,17.60
2016,09,25,18,25,17.60
2016,09,25,18,26,17.60
2016,09,25,18,27,17.50
2016,09,25,18,28,17.50
2016,09,25,18,29,17.50
2016,09,25,18,30,17.50
2016,09,25,18,31,17.40
2016,09,25,18,32,17.40
2016,09,25,18,33,17.40
2016,09,25,18,34,17.40
2016,09,25,18,35,17.40
2016,09,25,18,36,17.30
2016,09,25,18,37,17.30
2016,09,25,18,38,17.30
2016,09,25,18,39,17.30
2016,09,25,18,40,17.30
2016,09,25,18,41,17.30
2016,09,25,18,42,17.20
2016,09,25,18,43,17.20
2016,09,25,18,44,17.20
2016,09,25,18,45,17.20
2016,09,25,18,46,17.10
2016,09,25,18,47,17.10
2016,09,25,18,48,17.10
2016,09,25,18,49,17.10
2016,09,25,18,50,17.10
2016,09,25,18,51,17.00
2016,09,25,18,52,17.00
2016,09,25,18,53,16.90
2016,09,25,18,54,16.90
2016,09,25,18,55,16.90
2016,09,25,18,56,16.90
2016,09,25,18,57,16.80
2016,09,25,18,58,16.80
2016,09,25,18,59,16.80
2016,09,25,19,00,16.70
2016,09,25,19,01,16.70
2016,09,25,19,02,16.70
2016,09,25,19,03,16.60
2016,09,25,19,04,16.60
2016,09,25,19,05,16.50
2016,09,25,19,06,16.50
2016,09,25,19,07,16.40
2016,09,25,19,08,16.40
2016,09,25,19,09,16.30
2016,09,25,19,10,16.30
2016,09,25,19,11,16.30
2016,09,25,19,12,16.20
2016,09,25,19,13,16.20